Weather History for Chino, CA

Change the Weather History Date:

Sunday, January 19, 2014

  Actual Average Record
Temperature  
Mean Temperature 59 °F -  
Max Temperature 81 °F 65 °F 82 °F (2009)
Min Temperature 37 °F 39 °F 33 °F (2002)
Degree Days  
Heating Degree Days 6    
Growing Degree Days 9 (Base 50)    
Moisture  
Dew Point 28 °F    
Average Humidity 42    
Maximum Humidity 79    
Minimum Humidity 8    
Precipitation  
Precipitation 0.00 in - - ()
Sea Level Pressure  
Sea Level Pressure 30.09 in    
Wind  
Wind Speed 1 mph (West)    
Max Wind Speed 10 mph    
Max Gust Speed -    
Visibility 8 miles    
Events      
Averages and records for this station are not official NWS values.
T = Trace of Precipitation, MM = Missing Value Source: NWS Daily Summary

Daily Weather History Graph

Daily Weather History Graph

Search for Another Location

Airport:

Trip Planner

Search our weather history database for the weather conditions in past years. The results will help you decide how hot, cold, wet, or windy it might be!

Date:

Astronomy

Jan. 19, 2014 Rise Set
Actual Time 6:54 AM PST 5:08 PM PST
Civil Twilight 6:27 AM PST 5:35 PM PST
Nautical Twilight 5:57 AM PST 6:05 PM PST
Astronomical Twilight 5:27 AM PST 6:35 PM PST
Moon 8:38 PM PST (1/19) 8:37 AM PST (1/19)
Length of Visible Light 11h 07m
Length of Day
10h 14m
Waning Gibbous, 89% of the Moon is Illuminated
Jan 19
Waning Gibbous
Jan 23
Last Quarter
Jan 30
New
Feb 6
First Quarter
Feb 14
Full

Hourly Weather History & Observations

Time (PST) Temp. Windchill Dew Point Humidity Pressure Visibility Wind Dir Wind Speed Gust Speed Precip Events Conditions
12:53 AM 46.0 °F - 33.1 °F 61% 30.06 in 6.0 mi Calm Calm - N/A   Haze
1:53 AM 46.0 °F - 28.9 °F 51% 30.07 in 7.0 mi Calm Calm - N/A   Clear
2:53 AM 43.0 °F - 30.0 °F 60% 30.08 in 7.0 mi Calm Calm - N/A   Clear
3:53 AM 41.0 °F - 28.9 °F 62% 30.07 in 6.0 mi Calm Calm - N/A   Haze
4:53 AM 39.0 °F 35.7 °F 30.9 °F 73% 30.07 in 5.0 mi North 4.6 mph - N/A   Haze
5:53 AM 39.0 °F - 30.0 °F 70% 30.09 in 7.0 mi Calm Calm - N/A   Clear
6:53 AM 37.0 °F - 30.9 °F 79% 30.11 in 10.0 mi Calm Calm - N/A   Mostly Cloudy
7:53 AM 44.1 °F - 34.0 °F 68% 30.12 in 10.0 mi Calm Calm - N/A   Scattered Clouds
8:53 AM 48.0 °F - 33.1 °F 56% 30.14 in 10.0 mi Calm Calm - N/A   Mostly Cloudy
9:53 AM 52.0 °F - 32.0 °F 47% 30.15 in 10.0 mi Calm Calm - N/A   Mostly Cloudy
10:53 AM 63.0 °F - 30.9 °F 30% 30.14 in 10.0 mi Calm Calm - N/A   Mostly Cloudy
11:53 AM 71.1 °F - 23.0 °F 16% 30.10 in 10.0 mi Calm Calm - N/A   Mostly Cloudy
12:53 PM 75.9 °F - 18.0 °F 11% 30.07 in 10.0 mi Calm Calm - N/A   Scattered Clouds
1:53 PM 80.1 °F - 17.1 °F 9% 30.05 in 10.0 mi Calm Calm - N/A   Scattered Clouds
2:53 PM 81.0 °F - 14.0 °F 8% 30.04 in 10.0 mi SW 10.4 mph - N/A   Scattered Clouds
3:53 PM 79.0 °F - 15.1 °F 9% 30.04 in 10.0 mi WSW 9.2 mph - N/A   Mostly Cloudy
4:53 PM 70.0 °F - 21.9 °F 16% 30.05 in 10.0 mi WSW 9.2 mph - N/A   Mostly Cloudy
5:53 PM 62.1 °F - 25.0 °F 24% 30.07 in 10.0 mi West 8.1 mph - N/A   Mostly Cloudy
6:53 PM 62.1 °F - 24.1 °F 23% 30.08 in 10.0 mi WNW 3.5 mph - N/A   Mostly Cloudy
7:53 PM 55.0 °F - 30.0 °F 38% 30.10 in 10.0 mi ESE 3.5 mph - N/A   Mostly Cloudy
8:53 PM 53.1 °F - 34.0 °F 48% 30.11 in 6.0 mi Calm Calm - N/A   Haze
9:53 PM 48.9 °F - 30.9 °F 50% 30.12 in 6.0 mi Calm Calm - N/A   Haze
10:53 PM 48.0 °F - 34.0 °F 58% 30.12 in 7.0 mi Calm Calm - N/A   Clear
11:53 PM 50.0 °F - 30.9 °F 48% 30.12 in 7.0 mi Calm Calm - N/A   Clear